NOAA NWS Hourly Roundups by Site

Regional Weather Roundup for Bismarck, ND

To Select Another Site Choose from List

Select Site:  

714
ASUS43 KBIS 191010
RWRBIS

NWR BROADCAST TEXT
NATIONAL WEATHER SERVICE BISMARCK ND
400 AM CST SUN JAN 19 2020

NOTE: "FAIR" INDICATES FEW OR NO CLOUDS BELOW 12,000 FEET WITH NO
SIGNIFICANT WEATHER AND/OR OBSTRUCTIONS TO VISIBILITY.


CITY           SKY/WX    TMP DP  RH WIND       PRES   REMARKS
WILLISTON      FAIR     -15 -21  74 W12       30.48R WCI -36
MINOT          CLEAR    -10 -17  71 W15       30.48R WCI -32
MINOT AFB      CLEAR    -12 -19  70 W15       30.47R WCI -34
BISMARCK       PTCLDY    -9 -17  68 W12       30.54R WCI -28
DICKINSON      PTCLDY   -11 -18  71 W13       30.41S WCI -32
GARRISON         N/A    -14 -19  79 MISG      30.48R
HETTINGER ARPT CLEAR     -8 -14  74 NW6       30.44R WCI -21
JAMESTOWN      CLEAR     -9 -15  75 NW14      30.44R WCI -30
CARRINGTON     FAIR      -9 -15  77 NW20      30.45S WCI -34
HAZEN          FAIR     -11 -18  70 W7        30.54R WCI -26
MANDAN         FAIR     -11 -18  70 NW10      30.50R WCI -30
OAKES            N/A     -9 -17  70 NW20      30.46R WCI -34
RUGBY          FAIR     -13 -18  77 NW14      30.46R WCI -35
STANLEY        CLOUDY   -15 -20  76 NW12      30.44S WCI -36
TIOGA          FAIR     -17 -22  76 NW10      30.47F WCI -37
$$

CITY           SKY/WX    TMP DP  RH WIND       PRES   REMARKS
GRAND FORKS    PTCLDY    -1  -8  72 NW10      30.45R WCI -17
GRAND FORKS AF PTCLDY     1  -6  73 N12       30.44R WCI -16
DEVILS LAKE    CLOUDY   -10 -15  78 W17       30.43R WCI -34
FARGO          PTCLDY    -4 -11  72 NW14      30.45R WCI -24
CANDO          CLOUDY    -9 -15  77 NW14G20   30.45R WCI -31
CAVALIER       CLOUDY     1  -4  78 NW14G20   30.44R WCI -17
GRAFTON        FAIR       1  -6  71 NW12      30.46R WCI -15
GWINNER        SUNNY     -8 -13  77 NW20      30.45R WCI -32
LANGDON        LGT SNOW   0  -4  85 NW18      30.38R WCI -22
ROLLA          FLURRIES  -6 -13  71 NW14      30.39S WCI -26
WALHALLA       LGT SNOW   1  -2  85 NW14      30.44R WCI -17
$$

CITY           SKY/WX    TMP DP  RH WIND       PRES   REMARKS
ABERDEEN       PTCLDY    -7 -15  68 NW16G25   30.51R WCI -29
MOBRIDGE       CLEAR     -5 -15  62 NW14      30.47R WCI -25
BUFFALO          N/A      0  -9  65 VRB6      30.37S WCI -12
RAPID CITY     PTCLDY     8   1  73 N6        30.39R WCI  -2
GLASGOW        CLOUDY    -5 -15  62 CALM      30.50R
SIDNEY         CLEAR    -13 -19  75 CALM      30.55R
WOLF POINT     CLOUDY    -9 -18  64 CALM      30.56R
GLENDIVE       CLOUDY    -7 -14  71 NW6       30.49R WCI -20
MILES CITY     CLEAR     -4  -9  79 E3        30.44F
BAKER          CLEAR     -8 -13  78 W6        30.42S WCI -21
$$

CITY           SKY/WX    TMP DP  RH WIND       PRES   REMARKS
BILLINGS       MOCLDY    11   5  77 SW13      30.33R WCI  -4
GREAT FALLS    PTCLDY    27  18  69 SW10      30.30R WCI  17
REGINA         PTCLDY   -22 -27  76 W7        30.52R WCI -39
ESTEVAN        CLEAR    -17 -22  76 W8        30.49R WCI -34
$$




 

View Past Reports for Bismarck, ND.

Products Courtesy of NOAA-NWS
NWS Information Parsing Script by Ken True at Saratoga Weather - Script by SE Lincoln Weather.